[[{"header":{"parameterUnit":"m.s-1","parameterCategory":1,"la1":30.2991,"la2":30.254,"lo1":-89.0895,"lo2":-89.0444,"dy":0.0017,"dx":0.0017,"nx":28,"ny":28,"refTime":"2023-03-29T21:00:00:Z","depth":0,"parameterNumber":2,"parameterNumberName":"U-component_of_WINDS"},"data":[0,0,0,0,0,0,0,0,0,0,0,0,0,0,0,0,0,0,0,0,0,0,0,0,0,0,0,0,0,0,0,0,0,0,0,0,0,0,0,0,0,0,0,0,0,0,0,0,0,0,0,0,0,0,0,0,0,0,-4.9704,-4.9706,0,-4.9856,-4.9857,-4.9859,-4.9863,-4.9861,-4.9859,-4.9857,-5.0012,-5.0018,-5.0024,0,0,0,0,0,0,0,0,0,0,0,0,0,-4.9419,-4.9424,-4.9704,-4.9706,-4.9708,-4.9855,-4.9857,-4.9859,-4.9863,-4.9861,-4.9859,-4.9857,-5.0011,-5.0017,-5.0025,0,0,0,0,0,0,0,0,0,0,0,0,0,-4.9554,-4.9425,-4.9703,-4.9727,-4.9731,-4.9855,-4.9857,-4.986,-4.9864,-4.9861,-4.9858,-4.9855,-5.0008,-5.0017,-5.0025,-5.0136,0,0,-5.0052,-5.0056,0,0,0,0,0,0,0,0,-4.9546,-4.9564,-4.9722,-4.9726,-4.973,-4.9837,-4.9814,-4.9952,-4.9864,-4.9813,-4.9857,-4.9854,-4.9956,-4.9969,-5.0004,-5.0143,-5.015,-5.0053,-5.0058,-5.0062,-5.0065,0,0,0,0,0,0,0,-4.9537,-4.9557,-4.9764,-4.9724,-4.9729,-4.9731,-4.9747,-4.984,-4.9899,-4.9817,-4.9818,-4.9836,-4.9958,-4.9995,-5.0008,-5.0152,-5.0053,-5.0061,-5.0066,-5.007,-5.039,-5.0393,0,0,0,0,0,0,-4.9522,-4.955,-4.9759,-4.9768,-4.9629,-4.9738,-4.9756,-4.9806,-4.9898,-4.9909,-4.9838,-4.9836,-4.9982,-4.9997,-5.0013,-5.0148,-5.0062,-5.007,-5.0076,-5.0387,-5.039,-5.0394,0,0,0,0,0,0,-4.9516,-4.9541,-4.9753,-4.9659,-4.9686,-4.9746,-4.9802,-4.981,-4.9847,-4.9913,-4.9924,-4.9865,-4.998,-5.0001,-5.0105,-5.0153,-5.0074,-5.0082,-5.0383,-5.0388,-5.0392,-5.0418,0,0,0,0,0,0,-4.9508,-4.9539,-4.9581,-4.966,-4.9691,-4.9842,-4.9805,-4.9815,-4.9863,-4.9861,-4.9942,-4.9952,-4.998,-5.0092,-5.0114,-5.0164,-5.0089,-5.0379,-5.0385,-5.0391,-5.0413,-5.0423,-5.0431,0,0,0,0,0,-4.9498,-4.9582,-4.9583,-4.9608,-4.9745,-4.9845,-4.9863,-4.9892,-4.9866,-4.9909,-4.9952,-4.995,-5.0145,-5.0103,-5.0128,-5.0181,-5.0376,-5.0383,-5.039,-5.0409,-5.0421,-5.0431,0,0,0,0,0,0,-4.9506,-4.9593,-4.9595,-4.9707,-4.9769,-4.9845,-4.99,-4.9904,-4.9974,-4.997,-5.0004,-5.0022,-5.0126,-5.0164,-5.0116,-5.0293,-5.0257,-5.027,-5.0263,-5.0275,-5.0284,-5.0272,-5.0097,0,0,0,0,0,-4.9521,-4.9595,-4.9667,-4.9759,-4.979,-4.984,-4.9884,-4.9902,-4.9967,-4.9993,-5.0043,-5.0107,-5.0183,-5.0231,-5.0305,-5.042,-5.0437,-5.0469,-5.0478,-5.0485,-5.0495,-5.0558,-5.0573,-5.0418,-5.0418,-5.0418,0,0,-4.9552,-4.9609,-4.9653,-4.9762,-4.9812,-4.9887,-4.9862,-4.9942,-4.9999,-5.0006,-5.0107,-5.0147,-5.022,-5.033,-5.0381,-5.0365,-5.0542,-5.0494,-5.05,-5.0505,-5.0567,-5.0582,-5.0595,-5.0423,-5.0422,-5.0421,0,0,-4.9647,-4.9698,-4.978,-4.9831,-4.9907,-4.994,-4.996,-5.0037,-5.0063,-5.0166,-5.0173,-5.0241,-5.0371,-5.0422,-5.0466,-5.0583,-5.0583,-5.0607,-5.0654,-5.0715,-5.0727,-5.0738,-5.0779,-5.0793,-5.0617,-5.0617,-5.0617,0,-4.9676,-4.979,-4.9822,-4.9903,-4.9951,-4.9961,-5.0045,-5.0093,-5.0189,-5.0222,-5.0203,-5.0366,-5.0417,-5.0539,-5.0567,-5.0603,-5.0626,-5.0596,-5.0723,-5.0734,-5.0745,-5.0784,-5.0799,-5.0619,-5.0618,-5.0618,-5.0618,0,-4.9822,-4.9901,-4.9958,-5.0051,-5.0105,-5.0187,-5.0232,-5.0283,-5.0297,-5.0332,-5.0437,-5.0498,-5.0584,-5.0615,-5.0629,-5.074,-5.0727,-5.0716,-5.0681,-5.0761,-5.0799,-5.0814,-5.0622,-5.0621,-5.062,-5.062,0,0,-4.9923,-5.0034,-5.0054,-5.0096,-5.0182,-5.0244,-5.0327,-5.0411,-5.0454,-5.0522,-5.0591,-5.0702,-5.0692,-5.0741,-5.0762,-5.0817,-5.0904,-5.0798,-5.0801,-5.0814,-5.1029,-5.1035,-5.1052,-5.0907,-5.091,-5.0912,-5.1022,0,-5.0027,-5.0173,-5.0205,-5.0332,-5.0405,-5.0418,-5.049,-5.0551,-5.0587,-5.0655,-5.0695,-5.0772,-5.0754,-5.0784,-5.0838,-5.0882,-5.0947,-5.0875,-5.0971,-5.0974,-5.0949,-5.1072,-5.1079,-5.1179,-5.1037,-5.104,-5.1041,0,-5.0166,-5.0236,-5.0369,-5.0446,-5.0478,-5.0542,-5.0622,-5.0687,-5.0757,-5.078,-5.0836,-5.0851,-5.0938,-5.0901,-5.1022,-5.0972,-5.1014,-5.1041,-5.1046,-5.1054,-5.101,-5.1081,-5.1212,-5.1227,-5.1065,-5.1063,-5.1061,0,-5.0224,-5.0352,-5.0449,-5.0485,-5.0577,-5.0622,-5.0663,-5.073,-5.0779,-5.0849,-5.0881,-5.0961,-5.1004,-5.1066,-5.1103,-5.1073,-5.1221,-5.1187,-5.1241,-5.124,-5.1269,-5.1266,-5.1407,-5.13,-5.13,-5.13,-5.1299,0,-5.0334,-5.0415,-5.0476,-5.0536,-5.0627,-5.0664,-5.0754,-5.0794,-5.0854,-5.0922,-5.0939,-5.1002,-5.1048,-5.1118,-5.1147,-5.1242,-5.1262,-5.1282,-5.1289,-5.128,-5.1277,-5.1305,-5.1298,-5.1304,-5.1303,-5.1302,-5.1301,0,-5.0414,-5.0458,-5.0564,-5.0643,-5.0665,-5.0729,-5.0797,-5.0855,-5.0893,-5.0978,-5.1,-5.1059,-5.1142,-5.1186,-5.129,-5.131,-5.1416,-5.1419,-5.1392,-5.1394,-5.1445,-5.1439,-5.1607,-5.163,-5.151,-5.1511,-5.1512,0,-5.048,-5.0543,-5.0629,-5.0675,-5.0717,-5.0792,-5.0842,-5.0881,-5.0933,-5.1018,-5.1066,-5.115,-5.1219,-5.1351,-5.1403,-5.1483,-5.1487,-5.1541,-5.1499,-5.1488,-5.1486,-5.1481,-5.1487,-5.1547,-5.1548,-5.1549,-5.155,0,-5.0593,-5.0612,-5.0683,-5.0763,-5.0822,-5.0886,-5.095,-5.0988,-5.1038,-5.1095,-5.118,-5.1234,-5.134,-5.1423,-5.1508,-5.155,-5.1558,-5.1563,-5.158,-5.1569,-5.155,-5.156,-5.1409,-5.1558,-5.1558,-5.1557,-5.1556,-5.1556,-5.0667,-5.0723,-5.0792,-5.0871,-5.0924,-5.0983,-5.1041,-5.1087,-5.1158,-5.1247,-5.1267,-5.1357,-5.1426,-5.154,-5.1585,-5.1656,-5.1645,-5.167,-5.1675,-5.168,-5.1681,-5.1541,-5.1672,-5.1672,-5.1672,-5.1672,-5.1672,0,-5.0778,-5.0824,-5.0896,-5.0985,-5.1048,-5.1051,-5.1123,-5.1174,-5.1253,-5.1317,-5.1385,-5.1483,-5.1564,-5.1623,-5.1706,-5.1752,-5.1758,-5.1772,-5.1768,-5.1777,-5.1687,-5.1664,-5.1766,-5.1766,-5.1766,-5.1766,-5.1766,-5.1766,-5.0844,-5.0938,-5.0966,-5.1088,-5.1133,-5.1221,-5.1261,-5.1316,-5.1367,-5.1476,-5.1544,-5.1582,-5.1644,-5.1732,-5.1807,-5.1822,-5.1851,-5.1865,-5.188,-5.1794,-5.1784,-5.1774,-5.1752,-5.1871,-5.1871,-5.1964,-5.1965,-5.1966]},{"header":{"parameterUnit":"m.s-1","parameterCategory":1,"la1":30.2991,"la2":30.254,"lo1":-89.0895,"lo2":-89.0444,"dy":0.0017,"dx":0.0017,"nx":28,"ny":28,"refTime":"2023-03-29T21:00:00:Z","depth":0,"parameterNumber":3,"parameterNumberName":"V-component_of_WINDS"},"data":[0,0,0,0,0,0,0,0,0,0,0,0,0,0,0,0,0,0,0,0,0,0,0,0,0,0,0,0,0,0,0,0,0,0,0,0,0,0,0,0,0,0,0,0,0,0,0,0,0,0,0,0,0,0,0,0,0,0,4.9229,4.9231,0,4.9337,4.9338,4.9339,4.9333,4.9331,4.933,4.9328,4.9434,4.9438,4.9442,0,0,0,0,0,0,0,0,0,0,0,0,0,4.9015,4.9019,4.9229,4.9231,4.9232,4.9337,4.9338,4.934,4.9333,4.9331,4.9329,4.9327,4.9433,4.9438,4.9443,0,0,0,0,0,0,0,0,0,0,0,0,0,4.9114,4.9021,4.9229,4.9241,4.9244,4.9337,4.9338,4.934,4.9333,4.9331,4.9329,4.9327,4.9431,4.9437,4.9444,4.953,0,0,4.9463,4.9466,0,0,0,0,0,0,0,0,4.9108,4.9122,4.9238,4.9241,4.9243,4.9319,4.9302,4.9404,4.9334,4.9299,4.9328,4.9325,4.9397,4.9406,4.9432,4.9535,4.9539,4.9464,4.9468,4.947,4.9472,0,0,0,0,0,0,0,4.9102,4.9117,4.9272,4.924,4.9243,4.9241,4.9252,4.9321,4.936,4.9302,4.9302,4.9315,4.9398,4.9425,4.9434,4.9541,4.9464,4.9469,4.9473,4.9476,4.9722,4.9725,0,0,0,0,0,0,4.9093,4.9112,4.9268,4.9275,4.9169,4.9246,4.9259,4.9297,4.9359,4.9367,4.9317,4.9314,4.9416,4.9427,4.9438,4.9544,4.947,4.9476,4.948,4.9719,4.9723,4.9726,0,0,0,0,0,0,4.9088,4.9107,4.9264,4.9193,4.9213,4.9253,4.9295,4.93,4.9328,4.937,4.9377,4.9338,4.9414,4.9429,4.9508,4.9547,4.9479,4.9485,4.9716,4.972,4.9724,4.9756,0,0,0,0,0,0,4.9082,4.9105,4.9139,4.9194,4.9217,4.9333,4.9298,4.9304,4.9339,4.9337,4.9392,4.9398,4.9414,4.9498,4.9514,4.9555,4.949,4.9713,4.9718,4.9723,4.9752,4.9761,4.9768,0,0,0,0,0,4.9074,4.9142,4.914,4.9159,4.926,4.9335,4.9348,4.9365,4.9342,4.9376,4.9404,4.9397,4.9541,4.9506,4.9524,4.9567,4.971,4.9717,4.9722,4.9748,4.9759,4.9768,0,0,0,0,0,0,4.9088,4.9149,4.9148,4.9236,4.9281,4.9334,4.9377,4.9376,4.9427,4.9423,4.9441,4.9453,4.9533,4.9558,4.9519,4.9655,4.9622,4.9632,4.9636,4.9646,4.9655,4.9646,4.9495,0,0,0,0,0,4.9101,4.9158,4.9209,4.9281,4.9304,4.9337,4.937,4.938,4.9426,4.9445,4.9478,4.9522,4.9578,4.9614,4.9667,4.9756,4.9768,4.9794,4.9803,4.981,4.9818,4.9868,4.988,4.9746,4.9745,4.9745,0,0,4.9129,4.917,4.9204,4.9285,4.9321,4.9379,4.9353,4.9414,4.9457,4.9453,4.9531,4.9557,4.9608,4.9693,4.9731,4.9716,4.9858,4.9817,4.9822,4.9827,4.9875,4.9888,4.9899,4.975,4.9749,4.9748,0,0,4.9209,4.9246,4.9311,4.9349,4.9404,4.9426,4.9442,4.9496,4.9514,4.9592,4.9591,4.9642,4.9737,4.9773,4.9804,4.9902,4.9897,4.9918,4.9962,5.001,5.0021,5.0031,5.0065,5.0078,4.9927,4.9927,4.9927,0,4.9236,4.9325,4.9344,4.9408,4.9444,4.9445,4.9511,4.9546,4.9615,4.9639,4.9622,4.9743,4.9777,4.987,4.9895,4.992,4.9938,4.9911,5.0018,5.0028,5.0037,5.0071,5.0084,4.9929,4.9929,4.9928,4.9928,0,4.9356,4.9417,4.9463,4.9532,4.9573,4.9638,4.9667,4.9706,4.9713,4.9736,4.9817,4.9858,4.9921,4.9944,4.995,5.0039,5.0028,5.0014,4.9981,5.0052,5.0084,5.0097,4.9932,4.9931,4.9931,4.993,0,0,4.9445,4.9527,4.9543,4.9576,4.9638,4.9685,4.975,4.9813,4.9846,4.9895,4.9949,5.0031,5.0019,5.0055,5.0066,5.0108,5.0184,5.0089,5.0091,5.0105,5.0285,5.0295,5.0309,5.0182,5.0184,5.0186,5.0281,0,4.9532,4.9648,4.9669,4.977,4.9828,4.9831,4.9888,4.9932,4.9956,5.0008,5.0034,5.0092,5.0072,5.0094,5.0136,5.0165,5.022,5.0159,5.0232,5.0234,5.0218,5.0326,5.0336,5.0423,5.0293,5.0295,5.0297,0,4.9648,4.9702,4.981,4.9866,4.9891,4.9942,5.0002,5.0051,5.0102,5.0117,5.0158,5.0164,5.0231,5.0197,5.029,5.0248,5.0279,5.0298,5.0302,5.0309,5.0269,5.0335,5.0451,5.0464,5.0317,5.0315,5.0314,0,4.9703,4.9802,4.988,4.9907,4.9975,5.0011,5.004,5.0089,5.0126,5.0178,5.0203,5.0262,5.0294,5.0339,5.0362,5.0334,5.0453,5.042,5.0467,5.0466,5.0491,5.0489,5.0613,5.0512,5.0512,5.0511,5.0511,0,4.9798,4.9863,4.9906,4.9953,5.0027,5.0051,5.0123,5.0152,5.0195,5.0248,5.0255,5.0304,5.0331,5.0384,5.0402,5.0476,5.0491,5.0504,5.0508,5.0504,5.0502,5.0523,5.0518,5.0515,5.0514,5.0513,5.0513,0,4.9871,4.9902,4.9987,5.0045,5.0062,5.0114,5.0163,5.0209,5.0235,5.0302,5.0319,5.0358,5.0421,5.0449,5.0526,5.0538,5.0623,5.0623,5.0607,5.0608,5.0653,5.0648,5.0795,5.0816,5.0701,5.0702,5.0703,0,4.9929,4.998,5.0044,5.0081,5.0113,5.0172,5.021,5.0236,5.0276,5.0338,5.0377,5.0441,5.0493,5.0594,5.0629,5.0689,5.0689,5.0737,5.0698,5.0693,5.069,5.0687,5.0692,5.0743,5.0745,5.0746,5.0746,0,5.0028,5.0042,5.0098,5.0161,5.0207,5.0257,5.0306,5.0335,5.0368,5.0413,5.0479,5.052,5.06,5.0664,5.0726,5.0755,5.0757,5.0759,5.0773,5.0768,5.0757,5.0764,5.0626,5.0755,5.0754,5.0753,5.0753,5.0752,5.0096,5.0142,5.0195,5.0258,5.0298,5.0344,5.0391,5.0423,5.0479,5.0548,5.0559,5.063,5.068,5.0764,5.0797,5.0852,5.084,5.086,5.0865,5.0869,5.0872,5.0749,5.0863,5.0863,5.0862,5.0862,5.0862,0,5.0196,5.0231,5.0289,5.0358,5.0408,5.0407,5.0461,5.0503,5.0565,5.0613,5.0665,5.0741,5.0804,5.0844,5.0907,5.0943,5.0946,5.0959,5.0956,5.0963,5.0879,5.0861,5.0956,5.0956,5.0956,5.0956,5.0956,5.0956,5.0254,5.0332,5.0352,5.0451,5.0485,5.0556,5.0587,5.0629,5.0668,5.0753,5.0806,5.0833,5.0878,5.0944,5.1001,5.1012,5.1034,5.1049,5.1058,5.0979,5.0969,5.0959,5.0942,5.1053,5.1054,5.1138,5.1138,5.1139]}]]